Powrót do katalogu

FENGYUN 1C DEB

AktywnyPO
NORAD 31209·DEBRIS·🇨🇳 China

Wystrzelony May 10, 1999 z Taiyuan Satellite Launch Center

Loading…

Następne Przeloty (najbliższe 24 godziny)

TLE

Starzejące sięSource: Space-Track

Epoka: Sep 7, 2026, 00:58 UTC

1 31209U 99025BKP 26250.04089794  .00004238  00000-0  11567-2 0  9995
2 31209  98.8864   2.7239 0020751 258.2369 101.6494 14.47749661686850

Śledź FENGYUN 1C DEB w czasie rzeczywistym z AllMySat

Download on the App Store